Probability
0 0 0 0 0 0 1 2 3 3 3 3 3 3 3 3 2 1 0 0 0 0 0 0 1 1 1 0 0 0 0 0 0 0 0 0 0 0 0 0 0 0 0
0 0 0 0 0 0 0 1 2 3 3 3 3 3 3 3 2 1 0 0 0 0 0 0 0 0 0 0 0 0 0 0 0 0 0 0 0 0 0 0 0 0 0
0 0 0 0 0 0 0 0 1 3 3 3 3 3 3 3 2 0 0 0 0 0 0 0 0 0 0 0 0 0 0 0 0 0 0 0 0 0 0 0 0 0 0
0 0 0 0 0 0 0 0 1 2 3 3 3 3 3 3 2 1 0 0 0 0 0 0 0 0 0 0 0 0 0 0 0 0 0 0 0 0 0 0 0 0 0
0 0 0 0 0 0 0 0 0 1 2 3 3 3 3 3 3 2 1 0 0 0 0 0 0 0 0 0 0 0 0 0 0 0 0 0 0 0 0 0 0 0 0
0 0 0 0 0 0 0 0 0 0 1 3 3 3 3 3 3 3 1 0 0 0 0 0 0 0 0 0 0 0 0 0 0 0 0 0 0 0 0 0 0 0 0
0 0 0 0 0 0 0 0 0 0 1 2 3 3 3 3 3 3 2 1 0 0 0 0 0 0 0 0 0 0 0 0 0 0 0 0 0 0 0 0 0 0 0
0 0 0 0 0 0 0 0 0 0 0 1 1 2 3 3 3 3 3 2 1 0 0 0 0 0 0 0 0 0 0 0 0 0 0 0 0 0 0 0 0 0 0
0 0 0 0 0 0 0 0 0 0 0 0 0 1 2 3 3 3 3 3 1 1 1 2 1 0 0 0 0 0 0 0 0 0 0 0 0 0 0 0 0 0 0
0 0 0 0 0 0 0 0 0 0 0 0 0 0 1 1 2 3 3 3 3 2 3 3 2 1 0 0 0 0 0 0 0 0 0 0 0 0 0 0 0 0 0
0 0 0 0 0 0 0 0 0 0 0 0 0 0 0 0 1 2 2 3 3 3 3 3 3 2 1 0 0 0 0 0 0 0 0 0 0 0 0 0 0 0 0
0 0 0 0 0 0 0 0 0 0 0 0 0 0 0 0 0 1 1 1 3 3 3 3 3 2 1 0 0 0 0 0 0 0 0 0 0 0 0 0 0 0 0
0 0 0 0 0 0 0 0 0 0 0 0 0 0 0 0 0 0 0 1 2 3 3 3 3 2 1 0 0 0 0 0 0 0 0 0 0 0 0 0 0 0 0
0 0 0 0 0 0 0 0 0 0 0 0 0 0 0 0 0 0 0 1 3 3 3 3 3 2 1 0 0 0 0 0 0 0 0 0 0 0 0 0 0 0 0
0 0 0 0 0 0 0 0 0 0 0 0 0 0 0 0 0 0 0 2 3 3 3 3 3 2 1 0 0 0 0 0 0 0 0 0 0 0 0 0 0 0 0
0 0 0 0 0 0 0 0 0 0 0 0 0 0 0 0 0 0 0 1 2 3 3 3 3 1 0 0 0 0 0 0 0 0 0 0 0 0 0 0 0 0 0
0 0 0 0 0 0 0 0 0 0 0 0 0 0 0 0 0 0 0 0 1 2 3 3 2 1 0 0 0 0 0 0 0 0 0 0 0 0 0 0 0 0 0
0 0 0 0 0 0 0 0 0 0 0 0 0 0 0 0 0 0 0 0 0 1 1 2 1 0 0 0 0 0 0 0 0 0 0 0 0 0 0 0 0 0 0
0 0 0 0 0 0 0 0 0 0 0 0 0 0 0 0 0 0 0 0 0 0 0 0 0 0 0 0 0 0 0 0 0 0 0 0 0 0 0 0 0 0 0
0 0 0 0 0 0 0 0 0 0 0 0 0 0 0 0 0 0 0 0 0 0 0 0 0 0 0 0 0 0 0 0 0 0 0 0 0 0 0 0 0 0 0
0 0 0 0 0 0 0 0 0 0 0 0 0 0 0 0 0 0 0 0 0 0 0 0 0 0 0 0 0 0 0 0 0 0 0 0 0 0 0 0 0 0 0
0 0 0 0 0 0 0 0 0 0 0 0 0 0 0 0 0 0 0 0 0 0 0 0 0 0 0 0 0 0 0 0 0 0 0 0 0 0 0 0 0 0 0
0 0 0 0 0 0 0 0 0 0 0 0 0 0 0 0 0 0 0 0 0 0 0 0 0 0 0 0 0 0 0 0 0 0 0 0 0 0 0 0 0 0 0
0 0 0 0 0 0 0 0 0 0 0 0 0 0 0 0 0 0 0 0 0 0 0 0 0 0 0 0 0 0 0 0 0 0 0 0 0 0 0 0 0 0 0
0 0 0 0 0 0 0 0 0 0 0 0 0 0 0 0 0 0 0 0 0 0 0 0 0 0 0 0 0 0 0 0 0 0 0 0 0 0 0 0 0 0 0
0 0 0 0 0 0 0 0 0 0 0 0 0 0 0 0 0 0 0 0 0 0 0 0 0 0 0 0 0 0 0 0 0 0 0 0 0 0 0 0 0 0 0
Wind_Speed
4 2 2 1 1 1 0 0 1 2 2 2 2 2 3 3 3 2 3 3 3 4 4 3 3 3 3 3 3 3 3 2 2 2 1 0 0 0 0 1 1 1 1
3 2 2 1 1 1 1 1 1 0 1 1 2 2 2 2 2 2 3 3 3 3 3 4 3 3 3 3 3 3 2 2 2 2 2 2 2 2 1 1 1 1 1
4 3 2 2 2 2 2 1 1 1 1 1 2 2 2 2 2 2 2 2 2 3 3 3 3 3 3 3 4 4 4 3 3 1 2 2 2 1 2 2 2 2 2
3 3 2 2 2 2 1 1 1 0 0 1 2 3 3 2 2 1 2 2 2 2 3 3 3 3 3 3 4 4 3 4 4 2 2 2 1 2 2 2 2 2 3
2 2 2 2 2 1 1 1 0 0 0 1 2 3 2 1 1 2 3 2 2 2 2 3 3 3 3 3 4 4 4 3 4 3 2 2 2 3 3 3 3 3 3
2 2 2 1 1 2 1 1 0 0 0 1 1 2 2 2 2 2 2 2 1 1 1 2 3 3 3 4 4 4 4 4 4 3 3 3 3 3 3 4 4 4 3
1 1 1 1 1 2 2 1 1 1 1 2 2 2 2 3 3 2 2 2 2 1 2 2 2 2 3 3 3 4 4 4 4 4 3 3 3 3 3 4 3 4 3
2 2 2 2 1 2 2 2 1 1 1 1 2 2 2 2 2 2 2 2 2 2 2 2 2 2 2 3 3 3 4 3 4 4 5 3 3 3 3 3 3 3 4
2 2 2 2 2 2 2 2 2 1 1 1 1 2 2 2 2 1 1 1 1 1 2 2 2 2 2 2 3 3 4 4 4 4 4 4 3 3 3 3 3 4 5
2 2 2 2 2 2 2 2 2 2 2 1 1 1 1 1 1 1 1 1 1 1 2 2 3 2 2 3 3 2 3 4 4 3 4 4 3 3 3 3 3 4 5
3 2 2 2 2 2 2 1 2 1 1 1 1 1 1 1 1 1 1 1 1 1 2 2 2 3 3 3 3 3 3 4 4 4 5 5 5 4 3 3 3 4 4
3 3 2 2 2 2 2 2 2 1 1 1 0 0 0 0 1 1 1 2 1 1 2 2 2 3 3 3 3 3 3 4 4 4 5 5 4 5 4 4 4 4 4
3 3 2 2 2 2 2 1 1 1 1 1 0 0 1 1 1 1 1 2 2 2 2 2 2 3 3 3 3 4 4 5 5 5 5 5 5 5 4 5 4 4 4
4 3 3 2 2 2 2 2 1 1 1 1 1 1 1 1 1 1 1 2 2 2 2 2 3 3 3 3 3 4 4 5 5 5 5 5 5 5 5 5 5 4 4
5 5 4 3 3 3 2 2 1 1 1 1 1 1 1 1 1 1 1 2 2 2 3 3 3 3 3 3 3 4 4 5 5 5 5 5 6 6 6 5 5 5 5
6 5 4 4 4 4 3 2 2 2 1 1 2 2 1 1 1 2 1 1 2 2 3 3 3 3 2 3 4 4 5 5 5 5 4 4 5 6 7 7 8 7 6
6 6 5 5 5 4 3 3 2 1 1 2 2 2 2 2 2 2 2 2 2 3 3 3 3 4 4 4 4 5 5 5 5 5 4 4 3 5 5 6 7 7 8
6 6 5 5 4 3 3 2 1 1 2 2 2 2 2 2 2 2 3 3 3 3 3 4 4 4 4 5 5 6 5 5 5 5 5 5 5 4 5 5 6 6 6
5 5 4 4 3 2 2 2 2 2 2 3 3 3 3 3 3 3 3 3 3 3 4 4 4 5 5 5 5 5 4 4 5 4 4 5 5 6 6 6 6 6 5
3 3 2 1 2 2 2 2 2 3 3 4 3 3 3 3 4 3 3 3 3 3 3 4 4 5 5 6 6 5 3 4 4 4 4 5 6 7 7 6 5 6 6
2 2 1 1 1 1 2 2 2 3 3 3 3 3 3 3 3 3 3 3 3 3 4 4 4 4 5 6 6 6 4 4 4 4 3 4 6 7 8 7 5 7 6
2 2 1 1 1 1 2 2 2 3 2 2 2 3 3 3 3 3 3 3 3 3 4 4 4 3 3 4 5 7 7 6 4 4 4 4 7 8 8 6 6 7 6
2 2 2 1 1 1 2 2 3 2 2 2 3 3 3 3 3 3 3 3 3 3 3 3 4 3 3 4 6 7 7 7 5 4 6 7 8 8 6 6 6 5 4
2 2 2 2 2 1 2 3 2 2 2 3 3 3 3 3 3 3 3 3 3 4 4 4 4 4 3 4 4 4 4 5 5 4 4 6 6 6 5 5 4 4 4
2 2 2 2 3 2 2 2 2 2 3 3 3 3 3 3 3 4 4 5 5 5 5 5 4 4 5 6 7 5 4 4 4 3 3 3 3 3 3 3 3 3 3
2 2 2 2 2 2 3 3 2 2 3 3 3 3 3 3 3 4 4 6 7 8 9 8 7 6 7 8 8 9 8 7 5 3 3 4 4 4 4 4 4 4 4
Wind_Direction
281 295 305 300 301 299 285 239 191 188 177 169 181 192 181 172 168 164 166 170 163 161 167 164 163 161 165 167 164 157 155 147 155 157 152 145 156 232 293 308 309 358 1
289 303 308 291 278 276 270 251 247 225 189 194 186 198 175 174 165 159 163 171 172 168 172 175 168 169 170 170 167 163 168 161 180 195 196 213 213 206 244 261 285 297 310
267 275 276 276 282 286 281 276 295 270 204 178 176 165 165 157 162 164 167 168 172 170 173 179 171 175 176 179 182 181 180 181 185 215 229 225 233 244 208 228 248 274 288
266 267 264 264 266 278 290 284 272 285 205 179 182 175 174 169 169 167 158 157 160 168 177 178 174 178 183 187 189 193 194 192 194 196 252 280 278 244 236 214 229 259 272
275 279 273 274 288 305 301 291 254 143 196 195 179 168 175 172 158 152 142 139 144 167 177 182 182 184 188 192 192 195 197 202 209 205 201 214 231 246 251 254 245 251 252
328 326 325 316 326 334 325 319 256 226 190 179 172 165 169 170 158 163 156 156 158 159 172 183 187 191 194 198 199 199 200 203 210 214 212 213 217 222 238 255 262 264 257
315 313 325 326 327 321 315 298 258 258 232 188 179 168 177 185 186 184 179 177 181 184 197 189 188 193 197 200 202 202 208 210 211 216 222 229 240 243 241 245 261 269 269
303 293 294 299 310 301 291 282 256 259 261 223 194 176 179 188 200 202 193 191 195 198 200 194 196 195 194 196 196 203 211 213 216 222 226 228 235 237 237 241 245 261 262
306 297 301 310 312 300 285 268 250 255 270 250 218 188 188 193 196 202 198 200 196 198 200 193 195 195 197 194 197 205 207 209 216 222 225 229 230 236 243 242 241 248 261
299 303 307 310 313 306 297 287 272 257 255 238 219 209 204 209 207 203 203 216 210 203 204 197 198 195 200 203 199 209 216 215 219 222 224 230 233 232 237 241 246 250 257
276 283 303 307 310 320 317 312 301 295 288 264 229 208 223 236 225 220 224 226 223 214 213 214 208 206 205 209 211 215 221 225 229 229 228 234 236 237 237 237 240 244 249
263 268 285 298 312 313 310 314 310 308 318 307 242 229 247 241 236 244 246 233 226 225 224 222 221 220 217 217 220 225 226 227 230 235 232 233 233 237 240 239 241 245 250
268 272 273 280 292 288 289 300 307 307 313 313 239 226 243 238 241 254 263 245 229 227 230 232 234 234 230 228 228 228 229 232 232 233 234 235 232 237 241 240 242 245 251
268 272 269 268 273 269 273 282 286 299 286 264 236 238 248 247 250 256 258 254 242 234 233 239 239 240 238 232 232 231 234 236 236 236 236 237 236 240 243 243 243 243 245
263 262 259 260 260 256 256 259 268 282 273 255 266 260 276 270 263 262 261 257 249 243 239 240 244 244 243 234 232 239 241 242 242 240 239 240 245 251 252 250 247 245 245
259 256 255 253 252 247 245 244 252 265 261 256 268 269 274 278 268 266 265 266 264 255 244 241 242 244 251 256 251 253 246 245 244 245 245 244 242 247 254 260 260 254 248
252 250 248 247 247 243 238 236 242 248 253 260 269 265 262 269 273 273 268 262 265 262 252 246 245 247 254 259 259 261 258 250 248 247 247 251 251 250 251 257 261 262 260
250 250 251 253 252 249 242 237 238 239 250 263 270 275 263 260 272 270 265 267 268 263 260 256 250 251 255 261 260 260 253 254 251 248 247 247 250 252 257 257 256 258 259
251 250 250 252 248 240 225 213 227 242 256 265 269 273 270 262 261 263 266 270 271 272 271 265 257 256 262 265 266 265 255 255 257 256 253 252 253 257 262 260 260 266 268
248 246 243 233 233 247 224 210 222 240 258 268 275 277 271 264 258 264 272 279 274 272 278 276 268 264 263 267 272 273 260 260 264 262 257 254 261 267 265 259 257 260 268
242 228 216 229 256 251 207 217 235 256 277 289 288 285 279 275 268 270 276 273 272 274 273 272 271 267 266 264 265 268 262 260 263 262 260 260 266 270 267 267 263 265 277
213 195 193 229 274 247 208 226 254 280 292 285 283 284 282 280 276 266 271 269 259 260 263 270 275 272 271 268 267 269 266 270 263 260 262 266 270 271 271 268 272 278 281
221 209 199 221 270 261 228 240 272 290 286 280 276 277 280 275 271 261 261 264 254 251 259 259 266 275 275 272 273 268 266 266 266 264 266 271 270 271 268 266 271 271 263
226 215 202 226 266 277 265 266 280 277 266 264 270 272 271 274 273 265 252 248 246 246 250 255 261 268 269 267 267 265 263 260 263 266 267 268 266 266 270 272 264 259 258
229 216 216 234 264 287 289 294 283 263 258 263 266 267 264 267 271 266 255 250 247 245 251 254 257 260 262 265 274 274 266 262 262 275 271 261 261 259 266 271 269 266 263
213 214 229 247 272 291 293 296 283 255 253 259 265 263 264 266 267 273 278 267 266 271 267 267 266 268 272 278 274 275 277 273 270 272 258 257 257 259 262 264 265 263 260